User: anonymous   Login
Location: Unspecified
(0.0000°N, 0.0000°E)
Time: 05:47:05
(UTC+00:00)
Language:

DOVE 4 - Orbit

View from above orbital plane
View from above orbital plane
View from above satellite
View from above satellite

Ground track
Ground track

The orbit data is extracted from the following two-line orbital elements,

1 39430U 13066Q   19295.78839880  .00000125  00000-0  31888-4 0  9992
2 39430  97.7603 244.1234 0149994 216.3839 142.7096 14.59298262314994
Epoch (UTC): 22 October 2019 18:55:17
Eccentricity: 0.0149994
inclination: 97.7603°
perigee height: 589 km
apogee height: 801 km
right ascension of ascending node: 244.1234°
argument of perigee: 216.3839°
revolutions per day: 14.59298262
mean anomaly at epoch: 142.7096°
orbit number at epoch: 31499

The dashed part of the orbit path shows where the satellite is in the earth's shadow,  

DLR